Location: Bayshore Village Mobile Home Park
(26.6945°N, 81.8642°W)
Time: 23:07:42
(UTC+00:00)

Meteor 1-12 Rocket - Pass Details

Date: 17 June 2021
Orbit: 855 x 926 km, 81.2° (Epoch: 05 August)

Event Time Altitude Azimuth Distance (km) Brightness Sun altitude
Rises 00:46:05 0° 357° (N) 3,427 7.9 -5.4°
Reaches altitude 10° 00:48:32 10° 0° (N) 2,490 7.1 -5.9°
Maximum altitude 00:54:08 65° 82° (E) 942 4.3 -7.0°
Drops below altitude 10° 00:59:46 10° 164° (SSE) 2,507 6.2 -8.1°
Sets 01:02:13 0° 167° (SSE) 3,451 7.0 -8.5°
